Home   Weather   Denver   Past weeks

Flag for USA Past Weather in Denver, Colorado, USA — Yesterday and Last 2 Weeks

Now
30 °F

Passing clouds.


Feels Like: 22 °F
Forecast: 30 / 50 °F
Wind: 9 mph from South

Location: Buckley Air Force Base

Current Time: Jan 19, 2017 at 4:00:15 am

Latest Report: Jan 19, 2017 at 2:58 am


Visibility: 10 mi

Pressure: 29.60 "Hg (24.23 "Hg at 1593m altitude)

Humidity: 48%

Dew Point: 13 °F

Location of DenverLocation

Past Weather in Denver — Graph

°F

Denver Temperature Yesterday

Maximum temperature yesterday: 52 °F (at 1:58 pm)
Minimum temperature yesterday: 23 °F (at 6:58 am)
Average temperature yesterday: 35 °F

High & Low Weather Summary for the Past Weeks

 TemperatureHumidityPressure
High59 °F (Jan 9, 1:58 pm)100% (Jan 13, 10:03 am)30.47 "Hg (Jan 13, 10:03 am)
Low-4 °F (Jan 6, 6:58 am)22% (Jan 18, 1:58 pm)29.34 "Hg (Jan 11, 11:58 am)
Average28 °F69%30.03 "Hg
* Reported Jan 4 2:58 am — Jan 19 2:58 am, Denver, Weather by CustomWeather, © 2017

Note: Actual official high and low records may vary slightly from our data, if they occured in-between our weather recording intervals... More about our weather records

Advertising

Denver Weather History for the Previous 24 Hours

Scroll right to see more
 ConditionsComfort  
Time TempWeatherWind HumidityBarometerVisibility
2:58 am
Thu, Jan 19
30 °FPassing clouds.9 mph48%29.60 "Hg10 mi
1:58 am32 °FPassing clouds.10 mph45%29.60 "Hg10 mi
12:58 am33 °FPassing clouds.9 mph43%29.62 "Hg10 mi
11:58 pm
Wed, Jan 18
31 °FPassing clouds.8 mph47%29.63 "Hg10 mi
10:58 pm30 °FPassing clouds.9 mph54%29.67 "Hg10 mi
9:58 pm32 °FPassing clouds.10 mph50%29.69 "Hg10 mi
8:58 pm32 °FPassing clouds.9 mph52%29.72 "Hg10 mi
7:58 pm32 °FPassing clouds.8 mph55%29.78 "Hg10 mi
6:58 pm37 °FPassing clouds.No wind40%29.77 "Hg10 mi
5:58 pm43 °FPassing clouds.No wind35%29.77 "Hg10 mi
4:58 pm47 °FPassing clouds.5 mph27%29.75 "Hg10 mi
3:58 pm49 °FPassing clouds.3 mph25%29.76 "Hg10 mi
2:58 pm52 °FScattered clouds.6 mph23%29.76 "Hg10 mi
1:58 pm52 °FScattered clouds.7 mph22%29.74 "Hg10 mi
12:58 pm51 °FScattered clouds.6 mph24%29.79 "Hg10 mi
11:58 am48 °FScattered clouds.6 mph28%29.83 "Hg10 mi
10:58 am43 °FScattered clouds.7 mph30%29.87 "Hg10 mi
9:58 am37 °FScattered clouds.12 mph37%29.93 "Hg10 mi
8:58 am31 °FPassing clouds.12 mph48%29.97 "Hg10 mi
7:58 am25 °FPassing clouds.9 mph57%30.02 "Hg10 mi
6:58 am23 °FPassing clouds.10 mph62%30.03 "Hg10 mi
5:58 am25 °FClear.8 mph61%30.02 "Hg10 mi
4:58 am25 °FClear.12 mph63%29.97 "Hg10 mi
Weather by CustomWeather, © 2017

See weather overviewHow to use our weather pages